Location: Unspecified
(44.0704°N, 88.6889°W)
Time: 11:17:28
(UTC+02:00)

Vanguard 2 Rocket - Pass Details

Date: 08 August 2020
Orbit: 554 x 3326 km, 32.9° (Epoch: 22 September)

Event Time Altitude Azimuth Distance (km) Brightness Sun altitude
Rises 03:46:02 0° 249° (WSW) 4,132 10.9 -6.6°
Reaches altitude 10° 03:48:28 10° 244° (WSW) 3,447 10.3 -7.0°
Maximum altitude 03:57:15 49° 172° (S) 2,445 8.8 -8.3°
Drops below altitude 10° 04:12:09 10° 105° (ESE) 5,682 10.3 -10.6°
Enters shadow 04:13:10 - 105° (ESE) 5,937 10.4 -10.7°
